Weather History for Aberdeen / Amory, MS

Change the Weather History Date:

Monday, May 19, 2014

  Actual Average (KCBM) Record (KCBM)
Temperature  
Mean Temperature 70 °F -  
Max Temperature 87 °F 80 °F 93 °F (1998)
Min Temperature 53 °F 60 °F 43 °F (2007)
Cooling Degree Days 5    
Growing Degree Days 20 (Base 50)    
Moisture  
Dew Point 54 °F    
Average Humidity 55    
Maximum Humidity 59    
Minimum Humidity 53    
Precipitation  
Precipitation 0.00 in - - ()
Sea Level Pressure  
Sea Level Pressure 30.17 in    
Wind  
Wind Speed 2 mph (SSE)    
Max Wind Speed 9 mph    
Max Gust Speed -    
Visibility 8 miles    
Events      
Averages and records for this station are not official NWS values.
T = Trace of Precipitation, MM = Missing Value Source: NWS Daily Summary

Daily Weather History Graph

Daily Weather History Graph

Search for Another Location

Airport:

Trip Planner

Search our weather history database for the weather conditions in past years. The results will help you decide how hot, cold, wet, or windy it might be!

Date:

Astronomy

May. 19, 2014 Rise Set
Actual Time 5:50 AM CDT 7:51 PM CDT
Civil Twilight 5:22 AM CDT 8:19 PM CDT
Nautical Twilight 4:48 AM CDT 8:53 PM CDT
Astronomical Twilight 4:12 AM CDT 9:29 PM CDT
Moon No Moon Rise 10:43 AM CDT (5/19)
Length of Visible Light 14h 56m
Length of Day
14h 01m
Waning Gibbous, 71% of the Moon is Illuminated
May 19
Waning Gibbous
May 21
Last Quarter
May 28
New
Jun 5
First Quarter
Jun 12
Full

Hourly Weather History & Observations

Time (CDT) Temp. Heat Index Dew Point Humidity Pressure Visibility Wind Dir Wind Speed Gust Speed Precip Events Conditions
12:15 AM 57.2 °F - 41.0 °F 55% 30.19 in 0.8 mi Calm Calm - N/A   Haze
12:35 AM 55.4 °F - 39.2 °F 54% 30.19 in 0.2 mi Calm Calm - N/A   Haze
12:55 AM 55.4 °F - 39.2 °F 54% 30.19 in 0.2 mi Calm Calm - N/A   Haze
1:35 AM 55.4 °F - 39.2 °F 54% 30.18 in 0.5 mi Calm Calm - N/A   Haze
1:55 AM 55.4 °F - 39.2 °F 54% 30.18 in 0.2 mi Calm Calm - N/A   Haze
2:15 AM 55.4 °F - 39.2 °F 54% 30.18 in 0.2 mi Calm Calm - N/A   Haze
2:35 AM 53.6 °F - 39.2 °F 58% 30.18 in 2.0 mi Calm Calm - N/A   Haze
2:55 AM 53.6 °F - 37.4 °F 54% 30.18 in 0.8 mi Calm Calm - N/A   Haze
3:15 AM 53.6 °F - 37.4 °F 54% 30.18 in 4.0 mi Calm Calm - N/A   Haze
3:35 AM 53.6 °F - 37.4 °F 54% 30.18 in 1.0 mi Calm Calm - N/A   Haze
3:55 AM 53.6 °F - 37.4 °F 54% 30.18 in 3.0 mi Calm Calm - N/A   Haze
4:15 AM 53.6 °F - 37.4 °F 54% 30.19 in 0.5 mi Calm Calm - N/A   Haze
4:55 AM 53.6 °F - 37.4 °F 54% 30.19 in 5.0 mi Calm Calm - N/A   Haze
5:15 AM 55.4 °F - 39.2 °F 54% 30.20 in 5.0 mi Calm Calm - N/A   Haze
5:35 AM 55.4 °F - 39.2 °F 54% 30.19 in 7.0 mi Calm Calm - N/A   Scattered Clouds
5:55 AM 53.6 °F - 39.2 °F 58% 30.19 in 7.0 mi Calm Calm - N/A   Scattered Clouds
6:15 AM 53.6 °F - 37.4 °F 54% 30.20 in 1.2 mi Calm Calm - N/A   Haze
6:35 AM 53.6 °F - 37.4 °F 54% 30.20 in 3.0 mi Calm Calm - N/A   Haze
6:55 AM 55.4 °F - 39.2 °F 54% 30.21 in 5.0 mi Calm Calm - N/A   Haze
7:15 AM 55.4 °F - 39.2 °F 54% 30.22 in 6.0 mi Calm Calm - N/A   Haze
7:35 AM 57.2 °F - 42.8 °F 59% 30.22 in 7.0 mi Calm Calm - N/A   Clear
7:55 AM 60.8 °F - 44.6 °F 55% 30.22 in 7.0 mi Calm Calm - N/A   Clear
8:55 AM 64.4 °F - 48.2 °F 56% 30.22 in 10.0 mi SE 5.8 mph - N/A   Clear
9:55 AM 71.6 °F - 55.4 °F 57% 30.22 in 10.0 mi SSE 5.8 mph - N/A   Clear
10:15 AM 73.4 °F - 57.2 °F 57% 30.22 in 10.0 mi South 4.6 mph - N/A   Clear
10:35 AM 75.2 °F - 57.2 °F 53% 30.22 in 10.0 mi SSE 6.9 mph - N/A   Clear
10:55 AM 77.0 °F - 60.8 °F 57% 30.22 in 10.0 mi SSE 4.6 mph - N/A   Clear
11:15 AM 78.8 °F - 62.6 °F 57% 30.22 in 9.0 mi SE 6.9 mph - N/A   Clear
11:35 AM 80.6 °F 81.8 °F 62.6 °F 54% 30.22 in 10.0 mi SE 5.8 mph - N/A   Clear
11:55 AM 80.6 °F 82.3 °F 64.4 °F 58% 30.21 in 10.0 mi SSE 6.9 mph - N/A   Partly Cloudy
12:15 PM 82.4 °F 83.9 °F 64.4 °F 54% 30.21 in 9.0 mi South 6.9 mph - N/A   Partly Cloudy
12:35 PM 82.4 °F 83.9 °F 64.4 °F 54% 30.21 in 9.0 mi SE 5.8 mph - N/A   Clear
12:55 PM 82.4 °F 83.9 °F 64.4 °F 54% 30.20 in 10.0 mi SSE 6.9 mph - N/A   Partly Cloudy
1:15 PM 84.2 °F 86.6 °F 66.2 °F 55% 30.19 in 10.0 mi SE 6.9 mph - N/A   Clear
1:35 PM 84.2 °F 86.6 °F 66.2 °F 55% 30.19 in 9.0 mi South 3.5 mph - N/A   Partly Cloudy
1:55 PM 84.2 °F 86.6 °F 66.2 °F 55% 30.18 in 10.0 mi Calm Calm - N/A   Scattered Clouds
2:15 PM 86.0 °F 89.4 °F 68.0 °F 55% 30.18 in 10.0 mi SE 5.8 mph - N/A   Partly Cloudy
2:35 PM 84.2 °F 86.6 °F 66.2 °F 55% 30.17 in 10.0 mi South 6.9 mph - N/A   Partly Cloudy
2:55 PM 86.0 °F 89.4 °F 68.0 °F 55% 30.16 in 10.0 mi SSE 6.9 mph - N/A   Clear
3:15 PM 87.8 °F 92.6 °F 69.8 °F 55% 30.16 in 10.0 mi SSW 6.9 mph - N/A   Clear
3:35 PM 87.8 °F 92.6 °F 69.8 °F 55% 30.16 in 10.0 mi SSW 5.8 mph - N/A   Clear
3:55 PM 86.0 °F 90.4 °F 69.8 °F 58% 30.15 in 10.0 mi SSW 8.1 mph - N/A   Clear
4:15 PM 86.0 °F 90.4 °F 69.8 °F 58% 30.14 in 10.0 mi South 8.1 mph - N/A   Clear
4:35 PM 86.0 °F 89.4 °F 68.0 °F 55% 30.14 in 10.0 mi South 5.8 mph - N/A   Clear
4:55 PM 87.8 °F 92.6 °F 69.8 °F 55% 30.13 in 10.0 mi South 6.9 mph - N/A   Clear
5:15 PM 86.0 °F 90.4 °F 69.8 °F 58% 30.13 in 10.0 mi South 8.1 mph - N/A   Clear
5:35 PM 86.0 °F 89.4 °F 68.0 °F 55% 30.13 in 10.0 mi South 9.2 mph - N/A   Clear
6:15 PM 84.2 °F 86.6 °F 66.2 °F 55% 30.12 in 10.0 mi South 6.9 mph - N/A   Clear
6:35 PM 84.2 °F 86.6 °F 66.2 °F 55% 30.12 in 10.0 mi South 6.9 mph - N/A   Clear
6:55 PM 82.4 °F 84.6 °F 66.2 °F 58% 30.11 in 10.0 mi SE 4.6 mph - N/A   Clear
7:15 PM 80.6 °F 82.3 °F 64.4 °F 58% 30.11 in 10.0 mi SSE 4.6 mph - N/A   Clear
7:35 PM 78.8 °F - 62.6 °F 57% 30.11 in 10.0 mi SSE 3.5 mph - N/A   Clear
7:55 PM 77.0 °F - 60.8 °F 57% 30.11 in 10.0 mi Calm Calm - N/A   Clear
8:15 PM 73.4 °F - 55.4 °F 53% 30.11 in 9.0 mi SSE 3.5 mph - N/A   Clear
8:35 PM 71.6 °F - 55.4 °F 57% 30.11 in 10.0 mi Calm Calm - N/A   Clear
8:55 PM 69.8 °F - 53.6 °F 56% 30.12 in 10.0 mi Calm Calm - N/A   Clear
9:15 PM 69.8 °F - 51.8 °F 53% 30.12 in 10.0 mi Calm Calm - N/A   Clear
9:35 PM 66.2 °F - 50.0 °F 56% 30.12 in 10.0 mi Calm Calm - N/A   Clear
9:55 PM 68.0 °F - 51.8 °F 56% 30.12 in 10.0 mi Calm Calm - N/A   Clear
10:15 PM 69.8 °F - 51.8 °F 53% 30.12 in 10.0 mi SSE 5.8 mph - N/A   Clear
10:35 PM 69.8 °F - 53.6 °F 56% 30.12 in 10.0 mi SSE 6.9 mph - N/A   Clear
10:55 PM 69.8 °F - 53.6 °F 56% 30.12 in 10.0 mi SSE 5.8 mph - N/A   Clear
11:15 PM 69.8 °F - 51.8 °F 53% 30.12 in 10.0 mi SSE 4.6 mph - N/A   Clear
11:35 PM 68.0 °F - 51.8 °F 56% 30.13 in 10.0 mi Calm Calm - N/A   Clear
11:55 PM 66.2 °F - 50.0 °F 56% 30.13 in 10.0 mi Calm Calm - N/A   Clear